[[{"header":{"parameterUnit":"m.s-1","parameterCategory":1,"la1":30.2991,"la2":30.254,"lo1":-89.0895,"lo2":-89.0444,"dy":0.0017,"dx":0.0017,"nx":28,"ny":28,"refTime":"2023-04-16T21:00:00:Z","depth":0,"parameterNumber":2,"parameterNumberName":"U-component_of_WINDS"},"data":[0,0,0,0,0,0,0,0,0,0,0,0,0,0,0,0,0,0,0,0,0,0,0,0,0,0,0,0,0,0,0,0,0,0,0,0,0,0,0,0,0,0,0,0,0,0,0,0,0,0,0,0,0,0,0,0,0,0,0.3267,0.3266,0,0.3186,0.3185,0.3184,0.3173,0.3174,0.3175,0.3176,0.309,0.3087,0.3084,0,0,0,0,0,0,0,0,0,0,0,0,0,0.3409,0.3406,0.3267,0.3266,0.3265,0.3186,0.3185,0.3184,0.3173,0.3174,0.3175,0.3176,0.3091,0.3087,0.3084,0,0,0,0,0,0,0,0,0,0,0,0,0,0.334,0.3406,0.3267,0.325,0.3248,0.3187,0.3185,0.3184,0.3173,0.3174,0.3175,0.3176,0.3092,0.3088,0.3083,0.3032,0,0,0.3069,0.3067,0,0,0,0,0,0,0,0,0.3344,0.3334,0.3254,0.3251,0.3248,0.3191,0.3204,0.3133,0.3173,0.3201,0.3176,0.3177,0.3122,0.3115,0.3098,0.3028,0.3025,0.3069,0.3066,0.3064,0.3063,0,0,0,0,0,0,0,0.3348,0.3338,0.3235,0.3252,0.3249,0.3246,0.3237,0.319,0.3156,0.3199,0.3198,0.3189,0.3121,0.3102,0.3096,0.3023,0.3069,0.3065,0.3062,0.3061,0.2908,0.2907,0,0,0,0,0,0,0.3357,0.3342,0.3237,0.3232,0.33,0.3242,0.3233,0.3208,0.3157,0.315,0.3188,0.3189,0.3109,0.3101,0.3093,0.3029,0.3064,0.306,0.3058,0.291,0.2908,0.2907,0,0,0,0,0,0,0.336,0.3347,0.3241,0.3287,0.3273,0.3239,0.3211,0.3206,0.3187,0.3148,0.3142,0.3175,0.311,0.3099,0.3048,0.3026,0.3058,0.3054,0.2911,0.2909,0.2907,0.2903,0,0,0,0,0,0,0.3364,0.3349,0.3329,0.3287,0.3271,0.3198,0.321,0.3204,0.318,0.318,0.3134,0.3128,0.311,0.3054,0.3043,0.302,0.3051,0.2913,0.291,0.2908,0.2904,0.2901,0.2897,0,0,0,0,0,0.3369,0.333,0.3328,0.3316,0.3246,0.3197,0.3187,0.3168,0.3178,0.3158,0.3133,0.3129,0.3031,0.3049,0.3037,0.3012,0.2914,0.2911,0.2908,0.2906,0.2901,0.2897,0,0,0,0,0,0,0.337,0.3324,0.3322,0.3268,0.3237,0.3195,0.3169,0.3164,0.3128,0.3129,0.3106,0.3096,0.3046,0.3024,0.3045,0.296,0.2973,0.2968,0.2976,0.2971,0.2968,0.2973,0.3047,0,0,0,0,0,0.3365,0.3329,0.3291,0.3247,0.3232,0.3203,0.3181,0.3169,0.3135,0.3121,0.3093,0.3058,0.302,0.2995,0.2957,0.2902,0.2891,0.2879,0.2876,0.2873,0.2867,0.2836,0.283,0.2897,0.2897,0.2897,0,0,0.3352,0.3323,0.3301,0.3247,0.3221,0.3184,0.3192,0.3152,0.3124,0.3114,0.3064,0.3043,0.3003,0.295,0.2925,0.293,0.2847,0.2869,0.2867,0.2863,0.2833,0.2826,0.2821,0.2895,0.2895,0.2895,0,0,0.3309,0.3284,0.3245,0.322,0.3181,0.3162,0.3153,0.3112,0.3098,0.3048,0.304,0.3006,0.294,0.2912,0.2889,0.2838,0.2833,0.2827,0.2807,0.2777,0.2772,0.2767,0.2748,0.2741,0.2822,0.2822,0.2822,0,0.3298,0.3243,0.3225,0.3186,0.3162,0.3154,0.3114,0.3089,0.304,0.3023,0.303,0.2948,0.2921,0.286,0.2848,0.2831,0.2818,0.2831,0.2775,0.2769,0.2765,0.2746,0.2739,0.2821,0.2821,0.2821,0.2822,0,0.323,0.3192,0.3165,0.3119,0.3092,0.3053,0.3029,0.3004,0.2995,0.2976,0.2925,0.2892,0.2848,0.2833,0.2824,0.2772,0.2776,0.2779,0.2791,0.2758,0.274,0.2733,0.282,0.2821,0.2821,0.2821,0,0,0.3184,0.313,0.312,0.3099,0.3056,0.3026,0.2987,0.2944,0.2923,0.289,0.2855,0.28,0.2803,0.2777,0.2765,0.2739,0.27,0.2745,0.2744,0.2737,0.264,0.2636,0.2628,0.2697,0.2696,0.2695,0.2643,0,0.3135,0.3065,0.3049,0.2988,0.2952,0.2945,0.291,0.288,0.2861,0.2828,0.2807,0.2768,0.2776,0.276,0.2734,0.271,0.268,0.2714,0.2663,0.2661,0.2671,0.2619,0.2615,0.2567,0.2636,0.2634,0.2633,0,0.3069,0.3035,0.2971,0.2934,0.2918,0.2887,0.2848,0.2816,0.2782,0.277,0.2742,0.2733,0.269,0.2707,0.2648,0.2671,0.265,0.2635,0.2633,0.2626,0.2644,0.2609,0.2552,0.2544,0.2622,0.2623,0.2624,0,0.304,0.2979,0.2932,0.2915,0.287,0.2849,0.2829,0.2796,0.2772,0.2737,0.2721,0.2682,0.266,0.263,0.261,0.2623,0.2552,0.2567,0.254,0.254,0.2523,0.2524,0.246,0.2513,0.2513,0.2513,0.2513,0,0.2986,0.2947,0.2919,0.289,0.2846,0.2828,0.2785,0.2765,0.2736,0.2703,0.2694,0.2663,0.264,0.2605,0.2589,0.2542,0.2533,0.2521,0.2517,0.2521,0.2522,0.2505,0.2507,0.2511,0.2511,0.2512,0.2512,0,0.2945,0.2925,0.2874,0.2837,0.2827,0.2796,0.2763,0.2735,0.2717,0.2675,0.2664,0.2636,0.2595,0.2573,0.2521,0.2511,0.2458,0.2456,0.2469,0.2467,0.2441,0.2444,0.2363,0.2351,0.2413,0.2412,0.2412,0,0.2911,0.2881,0.2841,0.2819,0.2799,0.2764,0.2739,0.2722,0.2696,0.2656,0.2632,0.2591,0.2557,0.2492,0.2466,0.2427,0.2423,0.2398,0.2417,0.2422,0.2421,0.2422,0.2419,0.2393,0.2393,0.2392,0.2392,0,0.2853,0.2845,0.2811,0.2774,0.2745,0.2715,0.2685,0.2667,0.2644,0.2616,0.2575,0.2549,0.2497,0.2456,0.2415,0.2394,0.2388,0.2387,0.2378,0.238,0.2389,0.2383,0.2458,0.2388,0.2388,0.2389,0.2389,0.2389,0.2813,0.2786,0.2754,0.2717,0.2693,0.2665,0.2636,0.2616,0.2581,0.2538,0.253,0.2486,0.2453,0.2398,0.2376,0.2341,0.2345,0.2333,0.233,0.2327,0.2325,0.2396,0.2333,0.2333,0.2333,0.2333,0.2334,0,0.2753,0.2733,0.2699,0.2657,0.2628,0.2628,0.2595,0.257,0.2532,0.2502,0.2469,0.2422,0.2382,0.2354,0.2314,0.2291,0.2288,0.2281,0.2282,0.2277,0.2324,0.2334,0.2285,0.2285,0.2285,0.2285,0.2285,0.2285,0.2718,0.2672,0.2661,0.2602,0.2582,0.254,0.2521,0.2495,0.2471,0.2419,0.2387,0.237,0.234,0.2298,0.2262,0.2255,0.2239,0.2233,0.2225,0.2268,0.2274,0.2278,0.2288,0.223,0.223,0.2181,0.218,0.218]},{"header":{"parameterUnit":"m.s-1","parameterCategory":1,"la1":30.2991,"la2":30.254,"lo1":-89.0895,"lo2":-89.0444,"dy":0.0017,"dx":0.0017,"nx":28,"ny":28,"refTime":"2023-04-16T21:00:00:Z","depth":0,"parameterNumber":3,"parameterNumberName":"V-component_of_WINDS"},"data":[0,0,0,0,0,0,0,0,0,0,0,0,0,0,0,0,0,0,0,0,0,0,0,0,0,0,0,0,0,0,0,0,0,0,0,0,0,0,0,0,0,0,0,0,0,0,0,0,0,0,0,0,0,0,0,0,0,0,-4.2376,-4.2378,0,-4.2528,-4.253,-4.2532,-4.2455,-4.2451,-4.2447,-4.2443,-4.2596,-4.2603,-4.2611,0,0,0,0,0,0,0,0,0,0,0,0,0,-4.2015,-4.2022,-4.2376,-4.2378,-4.238,-4.2528,-4.253,-4.2532,-4.2456,-4.2451,-4.2446,-4.2442,-4.2593,-4.2602,-4.2612,0,0,0,0,0,0,0,0,0,0,0,0,0,-4.217,-4.2024,-4.2376,-4.236,-4.236,-4.2528,-4.253,-4.2533,-4.2457,-4.2451,-4.2445,-4.2439,-4.259,-4.2601,-4.2613,-4.2804,0,0,-4.2648,-4.2653,0,0,0,0,0,0,0,0,-4.2161,-4.2183,-4.236,-4.2361,-4.2361,-4.2467,-4.2459,-4.2624,-4.2458,-4.242,-4.2443,-4.2436,-4.2557,-4.2571,-4.2613,-4.2811,-4.2818,-4.2649,-4.2657,-4.2662,-4.2665,0,0,0,0,0,0,0,-4.2151,-4.2176,-4.2436,-4.2363,-4.2364,-4.2344,-4.2359,-4.249,-4.252,-4.2423,-4.2418,-4.2437,-4.2556,-4.2602,-4.2616,-4.282,-4.2649,-4.2659,-4.2667,-4.2671,-4.3183,-4.319,0,0,0,0,0,0,-4.2141,-4.2168,-4.2431,-4.2441,-4.2245,-4.2355,-4.2372,-4.2439,-4.2519,-4.2525,-4.2442,-4.2433,-4.2585,-4.2602,-4.2621,-4.2851,-4.2661,-4.2672,-4.2679,-4.3177,-4.3185,-4.3192,0,0,0,0,0,0,-4.2134,-4.2165,-4.2425,-4.2303,-4.2335,-4.2368,-4.2443,-4.2445,-4.249,-4.2533,-4.2538,-4.2483,-4.2581,-4.2605,-4.276,-4.2855,-4.2678,-4.2688,-4.3169,-4.3179,-4.3188,-4.3312,0,0,0,0,0,0,-4.2124,-4.2163,-4.2237,-4.2305,-4.2341,-4.2563,-4.2449,-4.2452,-4.2511,-4.2501,-4.2573,-4.2579,-4.2578,-4.2743,-4.2771,-4.2868,-4.2697,-4.3161,-4.3174,-4.3185,-4.33,-4.3325,-4.3347,0,0,0,0,0,-4.2111,-4.2265,-4.2241,-4.2274,-4.2435,-4.2568,-4.2589,-4.2586,-4.2519,-4.2593,-4.2621,-4.2577,-4.284,-4.2759,-4.2791,-4.2892,-4.3155,-4.317,-4.3184,-4.3289,-4.332,-4.3346,0,0,0,0,0,0,-4.2206,-4.2274,-4.2248,-4.2429,-4.2494,-4.2555,-4.2649,-4.2619,-4.2703,-4.269,-4.2681,-4.2698,-4.2859,-4.2891,-4.28,-4.3082,-4.2987,-4.3009,-4.3056,-4.3085,-4.3109,-4.3098,-4.2707,0,0,0,0,0,-4.2248,-4.2352,-4.2405,-4.2559,-4.2593,-4.2616,-4.2674,-4.2666,-4.2732,-4.2759,-4.2797,-4.2863,-4.296,-4.3024,-4.3116,-4.3303,-4.3318,-4.3389,-4.3412,-4.3431,-4.3451,-4.3553,-4.3585,-4.3241,-4.3241,-4.3241,0,0,-4.2336,-4.2386,-4.2452,-4.258,-4.2629,-4.2736,-4.2639,-4.2757,-4.2836,-4.2776,-4.2926,-4.2957,-4.3028,-4.3201,-4.3279,-4.3232,-4.3549,-4.3451,-4.3465,-4.3475,-4.3572,-4.3604,-4.3633,-4.3251,-4.3249,-4.3248,0,0,-4.2551,-4.2599,-4.2733,-4.2785,-4.2861,-4.2875,-4.2908,-4.2974,-4.2993,-4.3143,-4.3101,-4.3194,-4.3362,-4.3415,-4.3464,-4.3699,-4.3662,-4.3729,-4.3853,-4.3953,-4.398,-4.4004,-4.4089,-4.4119,-4.3748,-4.3748,-4.3749,0,-4.265,-4.2811,-4.2806,-4.2927,-4.2985,-4.2937,-4.3073,-4.3122,-4.3225,-4.3265,-4.3211,-4.3422,-4.3466,-4.3651,-4.3709,-4.375,-4.3786,-4.3722,-4.3976,-4.4,-4.4023,-4.4104,-4.4136,-4.3756,-4.3755,-4.3755,-4.3754,0,-4.293,-4.3042,-4.3141,-4.3243,-4.3311,-4.3439,-4.3452,-4.3522,-4.3508,-4.3527,-4.3681,-4.3733,-4.3835,-4.3878,-4.3864,-4.4061,-4.403,-4.3977,-4.3881,-4.4064,-4.4139,-4.417,-4.3767,-4.3765,-4.3762,-4.376,0,0,-4.321,-4.3307,-4.3344,-4.339,-4.347,-4.3557,-4.3682,-4.3783,-4.3843,-4.3915,-4.402,-4.4163,-4.4115,-4.417,-4.4162,-4.425,-4.4434,-4.4186,-4.4187,-4.4231,-4.4655,-4.4695,-4.4731,-4.4409,-4.4415,-4.442,-4.4649,0,-4.3431,-4.3653,-4.3651,-4.3856,-4.3959,-4.3915,-4.4024,-4.4085,-4.4106,-4.4196,-4.4218,-4.4321,-4.4249,-4.4282,-4.4367,-4.4394,-4.4519,-4.4377,-4.4507,-4.4511,-4.4492,-4.4771,-4.4814,-4.5028,-4.4678,-4.4683,-4.4687,0,-4.372,-4.3803,-4.4018,-4.4085,-4.4128,-4.4226,-4.4319,-4.4406,-4.4474,-4.4483,-4.4546,-4.4524,-4.4651,-4.4551,-4.4725,-4.4628,-4.4681,-4.4702,-4.471,-4.4723,-4.4611,-4.4792,-4.5096,-4.5128,-4.4733,-4.473,-4.4726,0,-4.3904,-4.4069,-4.422,-4.426,-4.4341,-4.4411,-4.4448,-4.451,-4.4571,-4.4651,-4.4691,-4.4784,-4.4836,-4.4908,-4.4912,-4.4839,-4.5088,-4.4988,-4.5099,-4.5099,-4.5155,-4.5151,-4.5472,-4.5187,-4.5186,-4.5185,-4.5185,0,-4.4153,-4.4286,-4.4304,-4.4397,-4.4545,-4.4541,-4.4687,-4.4717,-4.4773,-4.487,-4.4836,-4.4927,-4.4927,-4.502,-4.5023,-4.5167,-4.519,-4.5201,-4.5201,-4.5205,-4.5204,-4.524,-4.5226,-4.5194,-4.5192,-4.519,-4.5189,0,-4.4384,-4.4401,-4.4563,-4.4626,-4.4645,-4.4752,-4.4805,-4.4893,-4.4911,-4.5034,-4.5063,-4.5091,-4.5198,-4.5209,-4.5334,-4.5336,-4.551,-4.5493,-4.5489,-4.5486,-4.5597,-4.5587,-4.5953,-4.6002,-4.5683,-4.5686,-4.5689,0,-4.4543,-4.4645,-4.472,-4.4783,-4.4824,-4.4926,-4.4989,-4.4988,-4.5055,-4.514,-4.5218,-4.5322,-4.5406,-4.5579,-4.561,-4.5705,-4.5691,-4.5812,-4.5705,-4.5706,-4.5694,-4.5689,-4.5699,-4.5834,-4.5837,-4.584,-4.5842,0,-4.4822,-4.4826,-4.4918,-4.5014,-4.509,-4.5165,-4.5235,-4.5289,-4.5297,-4.5373,-4.5484,-4.5549,-4.5677,-4.5781,-4.5875,-4.591,-4.5879,-4.5876,-4.5907,-4.5913,-4.5907,-4.5913,-4.5547,-4.5868,-4.5865,-4.5864,-4.5862,-4.5861,-4.5023,-4.5112,-4.5179,-4.5283,-4.5336,-4.5403,-4.5489,-4.5518,-4.5611,-4.5716,-4.5709,-4.5832,-4.5896,-4.6019,-4.6062,-4.6157,-4.6116,-4.616,-4.6172,-4.6183,-4.6196,-4.5891,-4.6173,-4.6173,-4.6172,-4.6171,-4.6171,0,-4.5302,-4.5343,-4.5439,-4.5539,-4.5621,-4.5584,-4.566,-4.5731,-4.584,-4.5903,-4.5987,-4.6114,-4.6215,-4.6253,-4.6352,-4.642,-4.6408,-4.6446,-4.6442,-4.6451,-4.6226,-4.619,-4.6454,-4.6454,-4.6454,-4.6454,-4.6454,-4.6454,-4.5457,-4.5606,-4.5618,-4.5793,-4.5832,-4.5953,-4.6,-4.6061,-4.6111,-4.6256,-4.634,-4.6365,-4.6418,-4.652,-4.6611,-4.662,-4.6658,-4.6703,-4.6706,-4.6495,-4.6466,-4.6439,-4.6406,-4.6711,-4.6711,-4.6923,-4.6925,-4.6926]}]]